Location: São Paulo
(23.5507°S, 46.6334°W)
Time: 17:53:51
(UTC-03:00)

Hubble Space Telescope - Pass Details

Date: 01 August 2021
Orbit: 535 x 539 km, 28.5° (Epoch: 16 September)

Event Time Altitude Azimuth Distance (km) Brightness Sun altitude
Exits shadow 05:50:26 17° 244° (WSW) 1,382 2.2 -12.0°
Maximum altitude 05:53:12 40° 180° (S) 796 1.5 -11.4°
Drops below altitude 10° 05:57:08 10° 109° (ESE) 1,795 4.4 -10.5°
Sets 05:59:30 0° 102° (ESE) 2,687 5.6 -10.0°
